Kingsport, TN

11:59 AM EDT on October 01, 2016 (GMT -0400)
Tri-Cities Regional Tennessee / Virginia

Weather History for KTRI - July, 2013

Change the Weather History Date:

Thursday, July 25, 2013

  Actual Average Record
Temperature  
Mean Temperature 72 °F 75 °F  
Max Temperature 82 °F 85 °F 98 °F (2016)
Min Temperature 62 °F 64 °F 56 °F (2003)
Degree Days  
Heating Degree Days 0 0  
Month to date heating degree days 0 0  
Since 1 June heating degree days 0 11  
Since 1 July heating degree days 0 0  
Cooling Degree Days 7 10  
Month to date cooling degree days 262 247  
Year to date cooling degree days 557 526  
Since 1 June cooling degree days 485 453  
Growing Degree Days 23 (Base 50)    
Moisture  
Dew Point 60 °F    
Average Humidity 65    
Maximum Humidity 87    
Minimum Humidity 43    
Precipitation  
Precipitation 0.00 in 0.15 in 1.79 in (2012)
Month to date precipitation 6.43 3.78  
Year to date precipitation 39.49 25.07  
Snow  
Snow 0.00 in 0.00 in - ()
Month to date snowfall 0.0 0.0  
Since 1 June snowfall 0.0 0.0  
Since 1 July snowfall 0.0 0.0  
Snow Depth 0.00 in    
Sea Level Pressure  
Sea Level Pressure 29.94 in    
Wind  
Wind Speed 3 mph (North)    
Max Wind Speed 12 mph    
Max Gust Speed 15 mph    
Visibility 10 miles    
Events      
T = Trace of Precipitation, MM = Missing Value Source: NWS Daily Summary

Daily Weather History Graph

Daily Weather History Graph

Search for Another Location

Airport or City:

Trip Planner

Search our weather history database for the weather conditions in past years. The results will help you decide how hot, cold, wet, or windy it might be!

Date:

Astronomy

Jul. 25, 2013 Rise Set
Actual Time 6:30 AM EDT 8:41 PM EDT
Civil Twilight 6:01 AM EDT 9:10 PM EDT
Nautical Twilight 5:26 AM EDT 9:45 PM EDT
Astronomical Twilight 4:47 AM EDT 10:23 PM EDT
Moon 10:29 PM EDT (7/25) 9:51 AM EDT (7/25)
Length of Visible Light 15h 08m
Length of Day
14h 10m
Waning Gibbous, 88% of the Moon is Illuminated
Jul 25
Waning Gibbous
Jul 29
Last Quarter
Aug 6
New
Aug 14
First Quarter
Aug 20
Full

Hourly Weather History & Observations

Time (EDT) Temp. Heat Index Dew Point Humidity Pressure Visibility Wind Dir Wind Speed Gust Speed Precip Events Conditions
12:53 AM 70.0 °F - 64.0 °F 81% 29.88 in 10.0 mi Calm Calm - N/A   Mostly Cloudy
1:53 AM 69.1 °F - 63.0 °F 81% 29.88 in 10.0 mi North 4.6 mph - N/A   Overcast
2:53 AM 66.0 °F - 62.1 °F 87% 29.87 in 10.0 mi North 4.6 mph - N/A   Scattered Clouds
3:53 AM 66.0 °F - 62.1 °F 87% 29.86 in 9.0 mi Calm Calm - N/A   Partly Cloudy
4:53 AM 64.0 °F - 61.0 °F 90% 29.87 in 7.0 mi Calm Calm - N/A   Clear
5:53 AM 64.9 °F - 61.0 °F 87% 29.88 in 8.0 mi Calm Calm - N/A   Mostly Cloudy
6:53 AM 64.9 °F - 61.0 °F 87% 29.91 in 6.0 mi Calm Calm - N/A   Partly Cloudy
7:53 AM 66.9 °F - 62.1 °F 84% 29.92 in 10.0 mi Calm Calm - N/A   Partly Cloudy
8:53 AM 70.0 °F - 62.1 °F 76% 29.93 in 10.0 mi Calm Calm - N/A   Partly Cloudy
9:53 AM 73.0 °F - 61.0 °F 66% 29.94 in 10.0 mi Calm Calm - N/A   Partly Cloudy
10:53 AM 75.0 °F - 62.1 °F 64% 29.93 in 10.0 mi East 4.6 mph - N/A   Partly Cloudy
11:53 AM 78.1 °F - 62.1 °F 58% 29.94 in 10.0 mi Calm Calm - N/A   Partly Cloudy
12:53 PM 79.0 °F - 60.1 °F 52% 29.94 in 10.0 mi Calm Calm - N/A   Scattered Clouds
1:53 PM 81.0 °F 81.0 °F 57.0 °F 44% 29.94 in 10.0 mi Calm Calm - N/A   Scattered Clouds
2:53 PM 80.1 °F 80.6 °F 57.9 °F 47% 29.95 in 10.0 mi North 8.1 mph - N/A   Scattered Clouds
3:53 PM 82.0 °F 82.0 °F 57.9 °F 44% 29.94 in 10.0 mi NNW 8.1 mph - N/A   Partly Cloudy
4:53 PM 81.0 °F 81.1 °F 57.9 °F 45% 29.95 in 10.0 mi North 9.2 mph - N/A   Partly Cloudy
5:53 PM 80.1 °F 80.9 °F 60.1 °F 50% 29.96 in 10.0 mi North 9.2 mph - N/A   Partly Cloudy
6:53 PM 78.1 °F - 59.0 °F 52% 29.97 in 10.0 mi North 5.8 mph - N/A   Partly Cloudy
7:53 PM 75.9 °F - 57.9 °F 54% 29.98 in 10.0 mi North 5.8 mph - N/A   Mostly Cloudy
8:53 PM 71.1 °F - 57.0 °F 61% 29.99 in 10.0 mi North 5.8 mph - N/A   Partly Cloudy
9:53 PM 68.0 °F - 57.0 °F 68% 30.01 in 10.0 mi North 4.6 mph - N/A   Clear
10:53 PM 66.9 °F - 57.0 °F 70% 30.04 in 10.0 mi Calm Calm - N/A   Clear
11:53 PM 64.0 °F - 57.0 °F 78% 30.04 in 10.0 mi North 3.5 mph - N/A   Clear